Location: Lowman
(44.0835°N, 115.6207°W)
Time: 03:46:53
(UTC+00:00)

Tiangong - Pass Details

Date: 04 December 2022
Orbit: 383 x 386 km, 41.5° (Epoch: 03 February)

Event Time Altitude Azimuth Distance (km) Brightness Sun altitude
Rises 01:04:54 0° 244° (WSW) 2,247 4.0 -10.5°
Reaches altitude 10° 01:07:02 10° 236° (SW) 1,396 2.1 -10.9°
Maximum altitude 01:09:59 37° 166° (SSE) 608 -1.1 -11.4°
Enters shadow 01:12:09 16° 103° (ESE) 1,105 -0.3 -11.8°
